[[{"header":{"parameterUnit":"m.s-1","parameterCategory":1,"la1":30.2991,"la2":30.254,"lo1":-89.0895,"lo2":-89.0444,"dy":0.0017,"dx":0.0017,"nx":28,"ny":28,"refTime":"2025-08-17T09:00:00:Z","depth":0,"parameterNumber":2,"parameterNumberName":"U-component_of_WINDS"},"data":[0,0,0,0,0,0,0,0,0,0,0,0,0,0,0,0,0,0,0,0,0,0,0,0,0,0,0,0,0,0,0,0,0,0,0,0,0,0,0,0,0,0,0,0,0,0,0,0,0,0,0,0,0,0,0,0,0,0,0.5143,0.5143,0,0.5144,0.5144,0.5144,0.515,0.515,0.515,0.515,0.5151,0.515,0.515,0,0,0,0,0,0,0,0,0,0,0,0,0,0.5144,0.5144,0.5143,0.5143,0.5143,0.5144,0.5144,0.5144,0.515,0.515,0.515,0.515,0.5151,0.515,0.515,0,0,0,0,0,0,0,0,0,0,0,0,0,0.5144,0.5144,0.5143,0.5146,0.5146,0.5144,0.5144,0.5144,0.515,0.515,0.515,0.515,0.5151,0.515,0.515,0.5145,0,0,0.515,0.515,0,0,0,0,0,0,0,0,0.5144,0.5144,0.5145,0.5146,0.5146,0.5147,0.5145,0.5144,0.515,0.5148,0.515,0.5151,0.5149,0.5149,0.5149,0.5145,0.5145,0.515,0.515,0.5149,0.5149,0,0,0,0,0,0,0,0.5144,0.5144,0.5143,0.5145,0.5146,0.5147,0.5147,0.5145,0.5148,0.5149,0.5149,0.5149,0.5149,0.5149,0.5149,0.5145,0.515,0.515,0.5149,0.5149,0.5137,0.5137,0,0,0,0,0,0,0.5144,0.5144,0.5143,0.5143,0.5146,0.5147,0.5147,0.5147,0.5148,0.5148,0.5149,0.5149,0.5149,0.5149,0.5149,0.5143,0.515,0.5149,0.5149,0.5137,0.5137,0.5137,0,0,0,0,0,0,0.5144,0.5144,0.5143,0.5144,0.5144,0.5147,0.5146,0.5146,0.5146,0.5148,0.5148,0.5148,0.5149,0.5149,0.5146,0.5143,0.5149,0.5149,0.5138,0.5137,0.5137,0.5131,0,0,0,0,0,0,0.5144,0.5144,0.5142,0.5144,0.5144,0.514,0.5146,0.5146,0.5146,0.5147,0.5147,0.5148,0.515,0.5146,0.5146,0.5143,0.5149,0.5138,0.5137,0.5137,0.5131,0.513,0.5129,0,0,0,0,0,0.5144,0.514,0.5142,0.5142,0.5142,0.514,0.514,0.5143,0.5146,0.5144,0.5145,0.5148,0.5144,0.5146,0.5146,0.5142,0.5138,0.5138,0.5137,0.5132,0.513,0.5129,0,0,0,0,0,0,0.5137,0.514,0.5142,0.5139,0.5139,0.5141,0.5139,0.5142,0.5141,0.5141,0.5144,0.5145,0.5141,0.5141,0.5144,0.5137,0.5141,0.5141,0.5137,0.5136,0.5135,0.5135,0.5149,0,0,0,0,0,0.5135,0.5134,0.5137,0.5133,0.5134,0.5136,0.5136,0.5138,0.5138,0.5138,0.5139,0.5139,0.5138,0.5137,0.5136,0.5132,0.5132,0.5129,0.5128,0.5127,0.5127,0.5124,0.5123,0.5135,0.5135,0.5135,0,0,0.5131,0.5133,0.5132,0.5132,0.5133,0.5131,0.5136,0.5134,0.5133,0.5138,0.5135,0.5136,0.5136,0.5132,0.5131,0.5133,0.5124,0.5127,0.5126,0.5126,0.5124,0.5123,0.5122,0.5135,0.5135,0.5135,0,0,0.5123,0.5124,0.5121,0.5122,0.5123,0.5125,0.5125,0.5126,0.5127,0.5125,0.5128,0.5127,0.5124,0.5125,0.5124,0.5117,0.5119,0.5116,0.5111,0.5109,0.5108,0.5107,0.5104,0.5103,0.5116,0.5116,0.5116,0,0.5118,0.5116,0.512,0.5118,0.5118,0.5122,0.512,0.512,0.512,0.512,0.5123,0.512,0.5121,0.5117,0.5115,0.5115,0.5114,0.5116,0.5108,0.5107,0.5106,0.5104,0.5103,0.5115,0.5115,0.5115,0.5115,0,0.5109,0.5108,0.5106,0.5107,0.5106,0.5104,0.5107,0.5106,0.5109,0.511,0.5107,0.5108,0.5108,0.5107,0.5109,0.5104,0.5105,0.5108,0.5111,0.5105,0.5102,0.5101,0.5115,0.5115,0.5115,0.5115,0,0,0.5096,0.51,0.5099,0.5099,0.5101,0.51,0.5098,0.5098,0.5097,0.5097,0.5095,0.5094,0.5096,0.5096,0.5098,0.5096,0.509,0.5099,0.5099,0.5097,0.5084,0.5082,0.5081,0.5092,0.5092,0.5092,0.5084,0,0.5088,0.5085,0.5088,0.5084,0.5083,0.5088,0.5086,0.5087,0.5088,0.5088,0.5089,0.5088,0.5092,0.5092,0.509,0.5091,0.5087,0.5092,0.509,0.509,0.5089,0.5079,0.5077,0.5069,0.5083,0.5083,0.5083,0,0.5078,0.5079,0.5075,0.5077,0.5077,0.5075,0.5075,0.5074,0.5075,0.5077,0.5077,0.508,0.5078,0.5082,0.5079,0.5082,0.5081,0.5082,0.5082,0.5081,0.5086,0.5078,0.5067,0.5066,0.5081,0.5081,0.5082,0,0.5069,0.5068,0.5066,0.5066,0.5069,0.5068,0.5069,0.507,0.507,0.507,0.507,0.507,0.5069,0.5069,0.5072,0.5075,0.5068,0.5073,0.5069,0.5069,0.5067,0.5067,0.5055,0.5067,0.5067,0.5067,0.5067,0,0.5059,0.5057,0.5062,0.506,0.5057,0.5061,0.5058,0.506,0.5061,0.506,0.5064,0.5062,0.5066,0.5065,0.5067,0.5064,0.5064,0.5065,0.5066,0.5064,0.5064,0.5064,0.5064,0.5067,0.5067,0.5067,0.5067,0,0.5048,0.5051,0.5049,0.5052,0.5053,0.5051,0.5053,0.5052,0.5054,0.5052,0.5052,0.5055,0.5054,0.5057,0.5056,0.5058,0.5053,0.5055,0.5053,0.5053,0.505,0.505,0.5037,0.5035,0.5049,0.5048,0.5048,0,0.5042,0.504,0.5043,0.5042,0.5043,0.5042,0.5042,0.5046,0.5046,0.5047,0.5046,0.5045,0.5045,0.5043,0.5045,0.5045,0.5046,0.5042,0.5046,0.5045,0.5046,0.5046,0.5045,0.5041,0.504,0.504,0.504,0,0.503,0.5031,0.5031,0.5032,0.5032,0.5032,0.5033,0.5032,0.5037,0.5036,0.5036,0.5035,0.5035,0.5034,0.5035,0.5035,0.5038,0.5039,0.5038,0.5037,0.5035,0.5036,0.505,0.5039,0.5039,0.5039,0.5039,0.5039,0.502,0.5019,0.5021,0.5021,0.5022,0.5022,0.5021,0.5024,0.5023,0.5023,0.5026,0.5025,0.5026,0.5027,0.5027,0.5026,0.5028,0.5027,0.5026,0.5026,0.5025,0.5036,0.5026,0.5026,0.5026,0.5026,0.5026,0,0.5008,0.501,0.501,0.5011,0.5011,0.5014,0.5015,0.5015,0.5014,0.5015,0.5015,0.5014,0.5014,0.5016,0.5016,0.5015,0.5016,0.5014,0.5014,0.5014,0.5024,0.5024,0.5013,0.5013,0.5013,0.5013,0.5013,0.5013,0.5002,0.5,0.5002,0.5,0.5002,0.5001,0.5001,0.5002,0.5003,0.5002,0.5002,0.5004,0.5005,0.5005,0.5005,0.5006,0.5005,0.5003,0.5004,0.5013,0.5014,0.5015,0.5016,0.5003,0.5003,0.4995,0.4995,0.4995]},{"header":{"parameterUnit":"m.s-1","parameterCategory":1,"la1":30.2991,"la2":30.254,"lo1":-89.0895,"lo2":-89.0444,"dy":0.0017,"dx":0.0017,"nx":28,"ny":28,"refTime":"2025-08-17T09:00:00:Z","depth":0,"parameterNumber":3,"parameterNumberName":"V-component_of_WINDS"},"data":[0,0,0,0,0,0,0,0,0,0,0,0,0,0,0,0,0,0,0,0,0,0,0,0,0,0,0,0,0,0,0,0,0,0,0,0,0,0,0,0,0,0,0,0,0,0,0,0,0,0,0,0,0,0,0,0,0,0,-2.7878,-2.7879,0,-2.8038,-2.804,-2.8041,-2.8054,-2.8052,-2.8051,-2.8049,-2.8214,-2.822,-2.8226,0,0,0,0,0,0,0,0,0,0,0,0,0,-2.7584,-2.7589,-2.7877,-2.7879,-2.7881,-2.8038,-2.804,-2.8042,-2.8054,-2.8052,-2.805,-2.8048,-2.8212,-2.8219,-2.8227,0,0,0,0,0,0,0,0,0,0,0,0,0,-2.7724,-2.7591,-2.7877,-2.7906,-2.7911,-2.8037,-2.804,-2.8043,-2.8055,-2.8052,-2.805,-2.8047,-2.821,-2.8219,-2.8228,-2.8336,0,0,-2.8255,-2.8259,0,0,0,0,0,0,0,0,-2.7716,-2.7735,-2.79,-2.7905,-2.791,-2.8023,-2.7997,-2.8141,-2.8055,-2.8,-2.8049,-2.8046,-2.8153,-2.8166,-2.8202,-2.8344,-2.8351,-2.8256,-2.8262,-2.8265,-2.8268,0,0,0,0,0,0,0,-2.7707,-2.7728,-2.7941,-2.7902,-2.7908,-2.7912,-2.7929,-2.8024,-2.8089,-2.8005,-2.8006,-2.8025,-2.8155,-2.8194,-2.8206,-2.8353,-2.8256,-2.8264,-2.8269,-2.8273,-2.8593,-2.8596,0,0,0,0,0,0,-2.7691,-2.772,-2.7936,-2.7946,-2.7805,-2.792,-2.7939,-2.7989,-2.8088,-2.8101,-2.8027,-2.8025,-2.8179,-2.8196,-2.8212,-2.8347,-2.8265,-2.8274,-2.8279,-2.859,-2.8594,-2.8597,0,0,0,0,0,0,-2.7685,-2.771,-2.7929,-2.7833,-2.7862,-2.7927,-2.7984,-2.7994,-2.8033,-2.8105,-2.8117,-2.8054,-2.8178,-2.8199,-2.8305,-2.8352,-2.8278,-2.8286,-2.8586,-2.8591,-2.8595,-2.8615,0,0,0,0,0,0,-2.7676,-2.7708,-2.7749,-2.7834,-2.7867,-2.8019,-2.7987,-2.7999,-2.8048,-2.8047,-2.8134,-2.8146,-2.8178,-2.8292,-2.8314,-2.8364,-2.8293,-2.8583,-2.8589,-2.8594,-2.8611,-2.862,-2.8628,0,0,0,0,0,-2.7666,-2.7749,-2.7751,-2.7777,-2.792,-2.8022,-2.8041,-2.8075,-2.8052,-2.8094,-2.8141,-2.8143,-2.8343,-2.8303,-2.8328,-2.8381,-2.858,-2.8587,-2.8594,-2.8607,-2.8618,-2.8628,0,0,0,0,0,0,-2.7668,-2.776,-2.7764,-2.7877,-2.7942,-2.8024,-2.8079,-2.8086,-2.8159,-2.8155,-2.8195,-2.8215,-2.8319,-2.8361,-2.8313,-2.8491,-2.8459,-2.8471,-2.8461,-2.8472,-2.848,-2.8469,-2.8301,0,0,0,0,0,-2.7682,-2.7756,-2.7833,-2.7925,-2.7957,-2.8012,-2.8058,-2.8079,-2.8148,-2.8176,-2.823,-2.8297,-2.8375,-2.8426,-2.8502,-2.8617,-2.8636,-2.8666,-2.8674,-2.8681,-2.8691,-2.8756,-2.877,-2.862,-2.862,-2.862,0,0,-2.7711,-2.777,-2.7815,-2.7927,-2.798,-2.8057,-2.8035,-2.8118,-2.8176,-2.8188,-2.8292,-2.8334,-2.8411,-2.8523,-2.8574,-2.856,-2.8737,-2.869,-2.8694,-2.8702,-2.8765,-2.8779,-2.8792,-2.8625,-2.8624,-2.8623,0,0,-2.7803,-2.7855,-2.7938,-2.7991,-2.8071,-2.8107,-2.8126,-2.8208,-2.8237,-2.8341,-2.8352,-2.8422,-2.8556,-2.8611,-2.8656,-2.877,-2.8775,-2.8793,-2.8838,-2.8901,-2.8913,-2.8924,-2.8965,-2.898,-2.8803,-2.8803,-2.8803,0,-2.7829,-2.7945,-2.798,-2.8062,-2.8112,-2.8126,-2.8211,-2.8261,-2.8361,-2.8395,-2.8378,-2.8546,-2.8599,-2.8724,-2.8752,-2.8788,-2.8813,-2.8784,-2.8908,-2.892,-2.893,-2.897,-2.8986,-2.8805,-2.8805,-2.8805,-2.8805,0,-2.7974,-2.8054,-2.8112,-2.8208,-2.8264,-2.8347,-2.8395,-2.8447,-2.8464,-2.8502,-2.8609,-2.8673,-2.8762,-2.8793,-2.881,-2.8921,-2.891,-2.89,-2.8869,-2.8946,-2.8984,-2.9,-2.8808,-2.8807,-2.8806,-2.8806,0,0,-2.8072,-2.8187,-2.8207,-2.8251,-2.8341,-2.8404,-2.8488,-2.8575,-2.862,-2.8689,-2.8761,-2.8874,-2.8866,-2.8917,-2.894,-2.8995,-2.9083,-2.8979,-2.8982,-2.8997,-2.921,-2.9217,-2.9234,-2.9086,-2.9089,-2.9092,-2.9204,0,-2.8175,-2.8325,-2.8358,-2.8487,-2.8563,-2.8578,-2.8651,-2.8714,-2.8752,-2.8822,-2.8864,-2.8944,-2.8927,-2.8958,-2.9013,-2.906,-2.9126,-2.9052,-2.9155,-2.9158,-2.9135,-2.9254,-2.9262,-2.9365,-2.9219,-2.9221,-2.9223,0,-2.8315,-2.8387,-2.8523,-2.8603,-2.8636,-2.8701,-2.8784,-2.8851,-2.8923,-2.8947,-2.9005,-2.9022,-2.9111,-2.9075,-2.9198,-2.9148,-2.9191,-2.9221,-2.9226,-2.9237,-2.9195,-2.927,-2.9398,-2.9414,-2.9247,-2.9245,-2.9243,0,-2.8374,-2.8505,-2.8604,-2.8641,-2.8736,-2.8782,-2.8824,-2.8893,-2.8944,-2.9017,-2.905,-2.9132,-2.9178,-2.9241,-2.9281,-2.9251,-2.9402,-2.9368,-2.9425,-2.9424,-2.9457,-2.9454,-2.9595,-2.9483,-2.9483,-2.9483,-2.9483,0,-2.8486,-2.8569,-2.8632,-2.8692,-2.8786,-2.8824,-2.8917,-2.8959,-2.902,-2.909,-2.9108,-2.9173,-2.9221,-2.9294,-2.9325,-2.9423,-2.9443,-2.9466,-2.9474,-2.9465,-2.9462,-2.9495,-2.9489,-2.9487,-2.9486,-2.9485,-2.9485,0,-2.8568,-2.8613,-2.8722,-2.8803,-2.8826,-2.8891,-2.8961,-2.9021,-2.9059,-2.9148,-2.9171,-2.9231,-2.9317,-2.9363,-2.9471,-2.9492,-2.9602,-2.9605,-2.9578,-2.9581,-2.9635,-2.963,-2.9803,-2.9828,-2.9699,-2.97,-2.9701,0,-2.8637,-2.8701,-2.8789,-2.8837,-2.888,-2.8956,-2.9008,-2.9048,-2.9101,-2.9189,-2.9239,-2.9325,-2.9397,-2.9534,-2.9588,-2.9671,-2.9677,-2.9731,-2.9689,-2.9679,-2.9679,-2.9675,-2.9682,-2.9739,-2.974,-2.9741,-2.9742,0,-2.8754,-2.8774,-2.8847,-2.8929,-2.8989,-2.9056,-2.9121,-2.916,-2.9211,-2.927,-2.9358,-2.9413,-2.9523,-2.961,-2.9697,-2.9741,-2.9751,-2.9755,-2.9772,-2.9765,-2.9746,-2.9758,-2.9599,-2.9751,-2.975,-2.9749,-2.9749,-2.9748,-2.8833,-2.8891,-2.8962,-2.9043,-2.9097,-2.9158,-2.9218,-2.9264,-2.9338,-2.943,-2.945,-2.9543,-2.9614,-2.9732,-2.9779,-2.9853,-2.9842,-2.9867,-2.9874,-2.9879,-2.9882,-2.9734,-2.9869,-2.9868,-2.9868,-2.9868,-2.9868,0,-2.8952,-2.8998,-2.9073,-2.9164,-2.9228,-2.9231,-2.9304,-2.9358,-2.9439,-2.9504,-2.9575,-2.9676,-2.976,-2.9821,-2.9907,-2.9955,-2.9961,-2.9976,-2.9973,-2.9984,-2.9887,-2.9863,-2.9969,-2.9969,-2.9969,-2.9969,-2.9969,-2.9969,-2.9022,-2.912,-2.9148,-2.9274,-2.932,-2.9411,-2.9452,-2.9509,-2.9561,-2.9674,-2.9744,-2.9782,-2.9846,-2.9937,-3.0015,-3.003,-3.0062,-3.0076,-3.0092,-3.0001,-2.999,-2.998,-2.9958,-3.0082,-3.0083,-3.0183,-3.0184,-3.0185]}]]